Temperature
9 9 9 9 9 9 10 10 10 9 10 10 10 10 10 10 10 10 10 10 10 10 10 10 10 10 10 10 10 11 11 10 10 10 11 11 11 11 11 11 11 10 10
9 9 9 9 9 9 9 9 9 9 9 9 10 10 10 10 10 9 9 10 10 10 10 10 10 10 10 10 10 10 10 10 10 10 10 10 10 10 10 10 10 10 10
8 8 8 8 9 9 9 9 9 9 9 9 9 9 9 9 9 9 9 9 9 9 9 10 10 10 10 10 10 10 10 10 10 10 10 10 10 10 10 10 10 10 9
8 8 8 8 8 8 8 8 8 8 8 8 8 8 8 9 9 9 9 9 9 9 9 9 9 9 9 9 9 9 9 9 9 9 10 10 10 10 10 10 9 9 9
8 7 8 7 7 7 8 8 8 8 8 8 8 8 8 8 8 8 8 8 8 8 8 9 9 9 9 9 9 9 9 9 9 9 9 9 9 9 9 9 9 9 9
7 7 7 7 7 7 7 7 7 7 7 7 7 7 8 8 8 8 8 8 8 8 8 8 8 8 8 9 8 8 8 8 8 9 9 9 9 9 9 9 9 9 9
7 7 7 7 7 7 7 7 7 7 7 7 7 7 7 7 7 7 7 7 7 7 7 7 7 8 8 8 8 8 8 8 8 8 8 8 9 9 9 8 8 8 8
6 6 6 6 6 6 6 6 6 6 6 6 6 5 6 6 6 7 7 7 7 7 7 7 7 7 7 7 7 8 8 8 8 8 8 8 8 8 8 8 8 8 8
6 6 6 6 6 6 6 6 6 6 5 5 5 5 5 6 5 6 6 6 6 6 6 6 7 7 7 7 7 7 7 7 7 7 7 7 7 7 8 7 7 7 7
5 5 5 5 6 6 5 5 5 5 5 5 5 5 5 5 4 5 5 5 5 5 5 6 6 6 6 6 6 6 6 7 7 7 7 7 7 7 7 7 7 7 7
5 5 5 5 5 5 5 5 5 5 5 4 4 4 4 4 4 4 4 5 5 5 5 5 5 6 6 6 6 6 6 6 6 6 6 6 6 6 7 7 7 7 7
4 4 4 4 5 4 4 4 4 4 4 4 4 4 4 4 4 4 4 4 4 4 4 5 5 5 5 5 5 5 6 6 6 6 6 6 6 6 6 6 6 6 6
4 4 4 4 4 4 4 4 4 4 4 3 4 3 3 3 3 3 3 3 3 3 4 4 4 4 5 5 5 5 5 5 5 5 5 6 6 6 6 6 6 6 6
3 3 4 4 4 4 4 3 3 3 3 3 3 3 3 3 3 3 3 3 3 3 3 3 4 4 4 4 4 5 5 5 5 5 5 5 5 5 5 5 5 5 5
3 3 3 3 3 3 3 3 3 3 3 3 3 3 3 3 3 3 3 3 2 2 3 3 3 4 3 4 4 4 4 4 5 5 5 5 5 5 5 4 5 5 5
3 3 3 3 3 2 2 2 2 2 2 2 3 3 2 3 3 3 3 3 2 2 2 2 3 3 3 3 3 3 4 4 4 4 4 4 4 4 4 4 4 4 4
3 2 2 2 2 2 2 2 2 2 2 2 2 2 2 2 2 2 2 2 2 2 2 2 2 3 3 3 3 3 3 3 4 4 3 3 3 4 4 4 4 4 3
2 2 2 2 2 2 2 2 2 2 2 2 2 2 2 2 2 2 2 2 2 2 2 2 2 2 2 2 3 3 3 3 3 3 3 3 3 3 3 3 3 3 3
2 2 2 2 2 1 1 1 1 1 1 1 1 1 1 1 1 1 1 1 1 1 1 1 1 1 2 2 2 2 2 2 2 3 3 3 3 3 3 3 3 3 3
2 2 2 1 1 1 1 1 1 1 1 1 1 1 1 1 1 1 1 1 1 1 1 1 1 1 1 2 2 2 2 2 2 2 2 2 2 2 2 2 2 2 2
1 1 1 1 1 1 1 1 0 0 0 0 0 0 0 0 0 0 0 1 1 1 0 0 0 1 1 1 1 1 1 1 1 1 1 2 2 2 2 2 2 2 2
1 1 1 0 0 0 0 0 0 -0 -0 -0 -0 -0 -0 -1 -0 -0 0 0 0 0 0 0 0 0 1 1 0 0 0 0 -0 0 0 1 1 1 1 1 1 1 1
0 0 0 0 -0 -0 -0 -0 -0 -0 -1 -1 -1 -1 -1 -1 -1 -1 -0 -0 -0 0 0 0 0 0 0 0 0 -0 -0 -0 -0 -0 -0 -0 0 0 0 1 1 1 0
-0 -0 -0 -0 -1 -1 -1 -0 -0 -1 -1 -1 -1 -1 -1 -1 -1 -1 -1 -1 -0 -0 -0 -0 -0 -0 -0 -0 -0 -0 -1 -1 -1 -1 -1 -1 -1 -1 0 0 0 0 -0
-1 -1 -1 -1 -1 -1 -1 -1 -1 -1 -1 -1 -1 -1 -1 -1 -1 -1 -1 -1 -1 -1 -0 -0 -0 -0 -0 -0 -0 -1 -1 -1 -1 -1 -1 -1 -1 -1 -1 -0 -0 -0 -0
-1 -1 -1 -1 -1 -1 -1 -1 -1 -1 -1 -2 -2 -2 -2 -2 -2 -1 -1 -1 -1 -1 -1 -1 -1 -1 -1 -1 -1 -1 -1 -1 -2 -2 -1 -2 -2 -2 -2 -1 -1 -1 -1
Wind_Speed
2 2 2 2 2 2 2 2 3 3 4 4 4 4 4 5 4 4 3 2 4 5 6 6 6 6 6 6 6 5 5 5 6 6 5 6 6 6 6 6 7 7 7
2 3 3 3 2 3 3 3 3 3 4 3 4 4 5 5 5 4 4 3 3 5 6 6 7 7 7 6 7 7 7 6 6 7 6 6 6 7 7 7 7 7 8
3 3 3 3 3 3 3 3 3 3 3 4 4 4 4 5 4 4 4 4 4 4 5 6 7 7 7 7 7 7 7 7 7 6 7 7 7 7 8 7 7 7 8
4 3 3 3 3 3 3 3 3 3 3 4 4 4 4 4 5 4 4 4 3 3 3 4 6 7 7 8 7 7 7 7 7 7 7 8 8 8 8 8 8 8 9
4 4 3 3 3 3 3 3 3 3 3 4 4 4 4 4 4 3 3 3 3 3 3 3 5 6 7 8 7 7 7 8 8 8 8 8 8 9 8 8 9 9 9
4 4 3 4 4 3 3 3 3 3 3 3 4 4 3 3 3 3 3 2 2 3 3 4 4 4 6 7 8 8 8 7 8 8 9 8 8 9 9 9 8 8 9
4 4 4 4 4 4 4 4 3 4 3 2 2 2 3 3 3 2 2 2 2 3 3 4 4 5 5 6 6 7 8 7 8 9 9 8 8 8 9 9 9 8 9
4 4 4 3 3 3 4 3 4 3 2 2 1 2 2 2 2 2 2 2 2 2 3 4 4 5 5 5 4 6 7 8 8 8 8 8 8 9 9 9 9 9 9
5 5 4 4 3 3 3 3 4 4 3 2 2 2 2 2 2 2 3 2 2 3 3 3 4 5 6 5 4 5 7 8 8 8 8 8 8 9 9 9 9 9 9
4 4 4 4 4 3 4 4 4 4 4 3 3 3 3 2 2 2 3 3 3 4 4 4 4 4 5 5 5 5 6 7 8 8 8 8 9 9 10 10 9 9 9
4 4 4 4 4 3 4 4 4 4 4 4 3 3 3 3 4 4 5 4 4 4 4 5 4 4 5 5 5 5 6 7 7 8 8 8 9 10 10 10 10 10 9
3 4 4 4 4 4 4 4 4 5 5 5 4 4 4 4 4 4 5 6 5 4 5 4 4 4 4 5 5 5 6 6 7 7 8 9 9 10 10 11 10 10 9
3 4 4 4 4 4 4 4 4 5 5 5 5 4 5 5 4 4 5 5 6 5 4 4 4 4 4 5 5 5 6 6 6 7 7 8 9 9 10 11 11 10 9
4 4 4 5 4 4 4 4 4 5 5 5 5 5 4 4 5 5 5 5 5 5 5 5 3 4 4 5 5 6 5 6 6 7 7 7 8 8 9 10 11 10 8
4 4 5 5 4 5 5 5 4 5 5 5 5 5 4 4 4 5 5 6 5 5 5 5 3 3 4 4 5 5 5 5 6 6 6 7 7 7 8 9 11 8 8
4 4 4 4 4 4 5 4 4 4 4 4 4 5 4 4 4 4 5 5 6 6 5 5 4 4 4 4 5 5 5 5 5 5 5 6 7 7 8 9 9 8 8
4 5 4 4 5 5 5 4 4 4 5 5 4 5 5 5 4 4 4 4 4 4 6 6 5 5 5 4 4 4 4 4 4 4 5 6 7 7 7 6 7 8 8
4 5 4 5 5 5 5 5 5 5 5 5 5 5 5 4 5 4 4 4 4 5 5 6 5 5 5 4 3 3 3 4 3 4 5 6 7 6 6 6 6 7 7
4 4 4 5 5 5 5 5 5 5 5 5 5 5 5 5 5 4 4 4 4 4 4 5 5 4 4 3 3 3 4 3 4 4 4 4 4 5 6 6 6 6 7
4 4 4 4 4 4 4 4 4 5 5 5 4 5 5 5 5 5 4 4 4 4 3 4 4 4 3 3 2 2 3 3 3 3 3 4 4 4 5 5 5 6 6
4 4 4 4 4 4 4 4 4 5 5 4 4 5 4 4 5 4 4 4 4 3 3 3 4 3 3 2 2 2 3 3 4 3 3 4 4 3 4 4 5 5 6
3 3 4 4 4 3 4 5 5 5 4 5 4 4 4 4 4 3 4 4 5 5 4 4 4 4 3 2 2 2 2 2 3 2 3 5 4 4 4 4 6 6 7
3 3 3 3 3 4 4 5 5 4 4 4 4 4 3 3 4 3 3 4 4 4 5 5 5 4 4 3 2 2 2 3 3 3 3 4 4 4 4 5 6 6 7
3 3 3 3 3 3 4 4 4 4 3 4 4 4 4 3 3 3 3 3 3 3 3 4 4 4 3 3 3 2 2 2 3 3 3 3 4 4 5 5 5 6 7
3 3 3 3 3 3 3 2 3 2 3 3 3 3 3 4 3 3 3 3 3 2 2 2 3 2 1 1 1 1 1 1 3 3 3 2 3 5 5 4 4 6 7
2 2 2 2 2 3 3 2 3 2 2 2 2 2 3 3 3 2 3 3 3 3 2 2 1 0 0 0 1 2 2 2 2 2 2 1 2 3 2 3 5 6 5
Wind_Direction
275 282 286 288 286 289 276 279 279 279 271 265 262 261 261 259 247 248 252 255 275 282 284 287 288 279 279 271 268 271 281 281 284 286 295 297 291 291 293 287 291 289 293
269 276 277 280 282 284 282 272 273 274 275 269 262 260 262 257 247 251 257 251 254 275 281 284 289 286 282 277 271 273 274 275 280 277 282 286 289 291 291 291 289 293 291
261 268 274 274 277 277 275 268 265 270 272 269 264 261 263 252 246 252 254 257 254 257 273 282 288 288 288 286 273 273 275 276 278 281 279 278 279 282 286 288 294 295 294
250 259 268 271 270 270 268 264 259 263 266 271 272 268 263 247 239 246 250 251 258 267 269 280 286 289 287 287 283 279 275 273 276 275 277 277 275 275 277 282 286 291 293
251 253 260 264 263 265 265 265 260 261 268 276 275 271 263 251 241 238 242 250 259 272 280 288 284 290 295 295 289 289 282 272 274 274 276 280 277 273 269 275 279 284 288
250 252 256 254 255 255 257 258 263 256 262 276 276 273 267 263 249 236 237 248 265 280 285 291 291 295 295 298 293 294 286 280 276 273 274 275 279 277 272 274 276 283 288
247 252 259 256 253 246 248 254 261 252 256 269 274 277 263 248 242 253 255 263 272 286 291 294 295 298 297 293 290 296 292 285 281 280 277 277 277 277 278 278 278 282 287
246 248 249 249 254 250 247 252 252 246 252 243 248 269 271 235 220 250 247 258 279 288 291 294 296 295 294 292 294 295 296 292 284 283 284 282 278 278 279 284 282 282 287
247 246 246 250 252 255 256 253 245 229 231 244 251 250 239 252 300 248 249 251 275 288 292 297 296 297 294 291 288 296 300 298 290 288 288 291 287 283 284 285 287 287 287
249 249 252 253 250 252 255 251 244 234 227 236 249 258 265 258 261 277 259 260 278 279 285 288 287 288 289 287 288 297 304 301 295 292 292 295 294 292 290 288 287 290 288
260 257 254 254 253 253 254 251 244 241 235 236 239 242 248 253 247 247 268 276 279 275 280 281 282 284 285 281 281 293 304 301 302 298 298 300 300 299 301 297 293 294 288
263 261 259 256 255 253 253 247 243 243 239 235 238 237 235 235 236 237 255 270 279 279 284 276 278 281 288 284 284 300 300 300 301 301 304 303 301 300 303 308 298 294 288
260 259 254 254 251 250 257 254 245 242 239 237 237 242 245 249 254 254 257 268 278 281 272 268 273 281 288 287 287 298 295 298 299 302 304 306 305 305 303 313 307 300 295
260 263 257 255 256 254 251 243 243 243 241 240 241 242 248 250 246 245 248 260 273 274 265 270 270 272 286 289 292 295 294 294 297 299 302 304 307 308 309 316 317 302 304
264 259 257 254 253 254 252 245 245 245 243 242 242 241 248 251 251 253 249 247 253 264 271 270 270 273 289 291 290 291 292 294 297 298 303 307 309 309 308 311 316 309 311
267 262 260 255 253 251 249 244 248 248 247 249 249 248 251 255 252 250 254 254 249 254 265 275 279 285 286 288 290 290 291 298 298 299 303 307 310 307 312 313 315 314 313
267 264 260 252 249 246 247 242 246 245 245 249 251 252 257 260 254 255 252 249 245 249 261 277 282 289 282 285 292 295 301 300 300 301 300 304 306 307 310 317 321 321 317
263 261 255 249 247 245 245 240 242 244 246 249 250 253 256 253 250 254 250 248 247 249 253 269 280 286 286 288 294 299 310 308 309 310 303 305 308 317 322 322 330 330 326
265 264 257 249 246 244 244 239 237 242 249 252 252 251 252 247 245 249 251 253 252 255 258 263 275 287 289 293 306 314 315 312 313 308 309 316 327 334 335 337 337 335 330
265 261 256 250 244 241 241 236 234 238 248 254 254 256 255 251 249 249 251 252 251 255 255 256 268 281 283 297 299 312 324 329 326 331 332 330 327 329 330 331 334 336 328
267 262 254 249 245 239 240 231 230 233 239 246 251 255 254 258 266 259 253 247 245 244 247 247 257 270 276 289 297 316 312 327 328 329 328 327 330 331 328 326 328 332 330
270 264 255 249 248 245 246 237 233 227 234 241 249 258 261 255 259 266 276 274 262 248 244 241 251 252 263 284 299 299 304 314 316 330 326 323 328 325 328 335 336 332 331
265 263 258 253 255 253 249 234 225 229 237 241 245 250 255 256 258 250 255 267 276 281 269 248 244 254 257 266 269 270 279 291 296 304 316 312 321 320 328 332 333 332 335
265 264 265 263 260 256 246 234 223 226 233 242 247 248 251 255 253 251 257 258 269 277 272 259 255 265 269 260 250 248 267 298 312 320 312 293 312 319 324 331 338 338 339
262 267 266 267 268 266 249 237 231 228 229 242 253 255 254 249 251 252 253 250 262 277 296 292 285 281 273 273 274 214 247 276 303 316 328 311 313 322 320 321 337 341 341
256 262 264 271 276 274 253 239 242 233 230 234 237 245 257 260 255 252 251 244 249 264 276 304 309 344 186 242 294 258 235 244 287 290 315 320 307 328 326 320 330 336 342
Height
1501 1500 1500 1499 1499 1498 1498 1497 1497 1497 1497 1496 1496 1496 1496 1496 1495 1495 1495 1495 1495 1495 1495 1495 1495 1495 1495 1494 1494 1494 1494 1493 1493 1493 1492 1492 1491 1491 1490 1490 1489 1489 1488
1498 1497 1497 1496 1496 1495 1495 1495 1494 1494 1494 1493 1493 1493 1492 1492 1492 1492 1492 1492 1492 1492 1492 1492 1492 1492 1491 1491 1491 1491 1491 1490 1490 1490 1489 1489 1488 1488 1487 1486 1486 1485 1485
1495 1494 1494 1493 1492 1492 1492 1491 1491 1491 1491 1490 1490 1489 1489 1489 1488 1488 1489 1489 1489 1488 1488 1488 1488 1488 1488 1488 1488 1487 1487 1487 1486 1486 1486 1485 1485 1484 1484 1483 1482 1482 1481
1491 1491 1490 1489 1489 1488 1488 1488 1488 1488 1488 1488 1487 1486 1486 1486 1485 1485 1485 1485 1485 1485 1485 1485 1484 1484 1484 1484 1484 1483 1483 1483 1482 1482 1482 1482 1481 1481 1480 1479 1479 1478 1478
1488 1487 1486 1486 1485 1485 1484 1485 1484 1484 1484 1484 1484 1483 1483 1482 1482 1482 1482 1482 1482 1482 1482 1481 1481 1481 1480 1480 1480 1479 1479 1479 1478 1478 1478 1478 1478 1477 1476 1476 1475 1475 1474
1484 1483 1483 1482 1482 1481 1481 1481 1481 1481 1481 1481 1481 1480 1480 1479 1479 1478 1479 1479 1479 1479 1478 1478 1478 1477 1477 1476 1476 1475 1475 1474 1474 1474 1474 1474 1474 1473 1473 1472 1471 1471 1470
1480 1480 1479 1478 1478 1478 1477 1477 1477 1477 1478 1478 1478 1477 1477 1476 1476 1476 1476 1476 1476 1475 1475 1475 1474 1474 1473 1473 1472 1472 1471 1470 1471 1471 1470 1470 1469 1469 1469 1468 1468 1467 1466
1476 1476 1476 1475 1474 1474 1474 1474 1474 1474 1474 1474 1475 1474 1474 1475 1473 1473 1473 1473 1473 1472 1472 1471 1471 1470 1470 1469 1468 1468 1467 1467 1467 1467 1466 1466 1465 1465 1465 1465 1464 1464 1463
1473 1473 1472 1471 1471 1471 1470 1470 1471 1471 1471 1471 1472 1473 1473 1472 1471 1471 1470 1470 1469 1469 1469 1468 1468 1467 1466 1466 1465 1464 1464 1463 1463 1463 1462 1462 1462 1461 1461 1460 1460 1459 1459
1469 1468 1468 1468 1468 1468 1468 1467 1467 1468 1468 1468 1469 1469 1470 1469 1469 1468 1468 1467 1467 1466 1466 1465 1464 1464 1463 1462 1461 1461 1460 1460 1460 1459 1459 1458 1458 1457 1457 1456 1456 1456 1455
1465 1465 1465 1465 1464 1465 1465 1464 1464 1465 1465 1466 1466 1466 1466 1466 1466 1466 1465 1464 1464 1463 1463 1462 1461 1460 1459 1459 1458 1457 1457 1456 1456 1455 1455 1454 1454 1453 1453 1452 1452 1451 1451
1462 1462 1461 1461 1461 1461 1461 1461 1461 1462 1462 1462 1463 1463 1463 1463 1462 1462 1462 1460 1460 1459 1459 1458 1457 1457 1456 1455 1455 1454 1453 1453 1452 1452 1451 1450 1450 1450 1449 1448 1448 1447 1446
1459 1458 1458 1458 1458 1458 1458 1458 1458 1459 1459 1459 1459 1459 1459 1459 1459 1459 1459 1457 1456 1456 1455 1454 1454 1453 1452 1452 1451 1451 1450 1449 1449 1448 1447 1447 1446 1446 1445 1444 1443 1442 1442
1456 1456 1455 1455 1455 1455 1455 1455 1455 1455 1455 1455 1455 1455 1454 1454 1455 1455 1455 1455 1454 1453 1452 1451 1450 1449 1449 1448 1448 1447 1446 1446 1445 1444 1444 1443 1442 1441 1441 1440 1438 1437 1437
1453 1452 1452 1452 1452 1452 1452 1452 1451 1451 1451 1451 1451 1451 1450 1450 1450 1451 1451 1451 1452 1450 1448 1448 1447 1446 1445 1445 1444 1444 1443 1442 1442 1441 1440 1439 1438 1437 1437 1436 1434 1433 1432
1450 1449 1448 1448 1448 1448 1448 1448 1448 1448 1448 1448 1448 1447 1447 1447 1446 1446 1447 1447 1447 1447 1445 1444 1443 1443 1442 1441 1441 1440 1439 1439 1438 1437 1437 1435 1435 1434 1432 1432 1431 1429 1428
1446 1445 1445 1445 1445 1445 1445 1445 1444 1445 1445 1444 1444 1444 1443 1443 1443 1443 1443 1443 1443 1443 1441 1440 1440 1439 1439 1438 1437 1437 1436 1435 1434 1434 1433 1432 1431 1430 1429 1428 1427 1425 1425
1443 1442 1442 1441 1441 1441 1441 1441 1441 1441 1441 1441 1440 1440 1440 1440 1439 1440 1439 1439 1439 1439 1438 1437 1436 1436 1435 1435 1434 1433 1433 1432 1431 1430 1429 1429 1428 1426 1426 1424 1423 1422 1421
1439 1439 1438 1438 1437 1437 1437 1437 1438 1438 1438 1437 1437 1437 1436 1436 1436 1436 1436 1436 1436 1435 1435 1434 1433 1432 1432 1432 1431 1430 1429 1428 1428 1427 1426 1425 1424 1423 1422 1421 1420 1419 1418
1436 1435 1434 1434 1434 1433 1433 1434 1434 1434 1434 1434 1434 1433 1433 1432 1432 1432 1432 1432 1432 1432 1432 1431 1430 1430 1429 1428 1428 1427 1426 1425 1424 1424 1423 1422 1421 1420 1419 1418 1417 1416 1415
1432 1432 1431 1430 1430 1430 1430 1430 1430 1431 1430 1430 1430 1430 1429 1429 1429 1429 1429 1429 1429 1429 1428 1428 1428 1427 1426 1425 1425 1424 1423 1422 1421 1421 1420 1419 1418 1417 1416 1414 1413 1412 1411
1429 1428 1427 1426 1426 1426 1426 1427 1427 1427 1427 1427 1427 1426 1426 1426 1425 1425 1426 1426 1426 1426 1425 1425 1425 1424 1423 1423 1422 1422 1421 1420 1419 1419 1417 1416 1416 1414 1413 1411 1410 1409 1408
1425 1424 1424 1423 1423 1423 1423 1423 1424 1424 1424 1424 1424 1423 1423 1422 1422 1422 1422 1422 1422 1422 1422 1423 1422 1422 1421 1421 1420 1419 1419 1419 1418 1417 1416 1413 1413 1411 1410 1409 1407 1406 1405
1422 1421 1421 1421 1420 1420 1420 1420 1421 1421 1421 1421 1421 1421 1420 1420 1420 1420 1419 1419 1418 1418 1419 1419 1419 1419 1419 1419 1418 1418 1417 1416 1415 1415 1414 1411 1409 1408 1407 1406 1405 1403 1402
1420 1419 1419 1418 1418 1418 1418 1418 1418 1418 1418 1418 1418 1418 1418 1418 1417 1417 1417 1416 1415 1416 1416 1416 1416 1416 1416 1416 1415 1415 1414 1413 1412 1412 1412 1410 1407 1406 1404 1403 1402 1401 1399
1417 1417 1417 1416 1416 1416 1415 1415 1415 1415 1415 1415 1415 1415 1415 1415 1415 1414 1414 1414 1413 1413 1413 1413 1414 1413 1413 1413 1413 1413 1412 1411 1410 1409 1409 1408 1406 1405 1402 1400 1400 1398 1396